La Grande, OR

3:40 AM PST on December 13, 2019 (GMT -0800)
La Grande-Union County

Weather History for KLGD - September, 2019

Change the Weather History Date:

Sunday, September 1, 2019

  Actual Average Record
Temperature  
Mean Temperature 74 °F -  
Max Temperature 91 °F 77 °F 98 °F (1967)
Min Temperature 59 °F 45 °F 33 °F (1999)
Cooling Degree Days 10    
Growing Degree Days 24 (Base 50)    
Moisture  
Dew Point 49 °F    
Average Humidity 42    
Maximum Humidity 62    
Minimum Humidity 24    
Precipitation  
Precipitation 0.00 in - - ()
Sea Level Pressure  
Sea Level Pressure 30.38 in    
Wind  
Wind Speed 8 mph (NW)    
Max Wind Speed 17 mph    
Max Gust Speed -    
Visibility 10 miles    
Events      
Averages and records for this station are not official NWS values.
T = Trace of Precipitation, MM = Missing Value Source: NWS Daily Summary

Daily Weather History Graph

Daily Weather History Graph

Search for Another Location

Airport or City:

Astronomy

Sep. 01, 2019 Rise Set
Actual Time 6:13 AM PDT 7:29 PM PDT
Civil Twilight 5:43 AM PDT 8:00 PM PDT
Nautical Twilight 5:06 AM PDT 8:36 PM PDT
Astronomical Twilight 4:27 AM PDT 9:15 PM PDT
Moon 8:55 AM PDT (9/1) 9:12 PM PDT (9/1)
Length of Visible Light 14h 17m
Length of Day
13h 16m
Waxing Crescent, 8% of the Moon is Illuminated
Sep 1
Waxing Crescent
Sep 5
First Quarter
Sep 13
Full
Sep 21
Last Quarter
Sep 28
New

Hourly Weather History & Observations

Time (PDT) Temp. Dew Point Humidity Pressure Visibility Wind Dir Wind Speed Gust Speed Precip Events Conditions
12:56 AM 72.0 °F 44.1 °F 37% 30.39 in 10.0 mi NW 10.4 mph - N/A   Clear
1:56 AM 72.0 °F 44.1 °F 37% 30.39 in 10.0 mi WNW 11.5 mph - N/A   Clear
2:56 AM 66.9 °F 46.0 °F 47% 30.40 in 10.0 mi NNW 8.1 mph - N/A   Clear
3:56 AM 68.0 °F 46.0 °F 45% 30.40 in 10.0 mi NW 10.4 mph - N/A   Clear
4:56 AM 63.0 °F 46.0 °F 54% 30.40 in 10.0 mi NNW 8.1 mph - N/A   Clear
5:56 AM 59.0 °F 46.0 °F 62% 30.41 in 10.0 mi NNW 6.9 mph - N/A   Clear
6:56 AM 60.1 °F 46.9 °F 62% 30.42 in 10.0 mi NNW 10.4 mph - N/A   Clear
7:56 AM 63.0 °F 48.9 °F 60% 30.43 in 10.0 mi Calm Calm - N/A   Clear
8:56 AM 69.1 °F 50.0 °F 51% 30.43 in 10.0 mi Calm Calm - N/A   Clear
9:56 AM 73.9 °F 51.1 °F 45% 30.42 in 10.0 mi Calm Calm - N/A   Clear
10:56 AM 78.1 °F 51.1 °F 39% 30.41 in 10.0 mi Variable 5.8 mph - N/A   Clear
11:56 AM 80.1 °F 48.9 °F 34% 30.40 in 10.0 mi Variable 5.8 mph - N/A   Clear
12:56 PM 82.9 °F 50.0 °F 32% 30.38 in 10.0 mi Calm Calm - N/A   Clear
1:56 PM 86.0 °F 48.0 °F 27% 30.36 in 10.0 mi Calm Calm - N/A   Clear
2:56 PM 89.1 °F 48.9 °F 25% 30.34 in 10.0 mi North 5.8 mph - N/A   Clear
3:56 PM 90.0 °F 48.0 °F 24% 30.32 in 10.0 mi North 4.6 mph - N/A   Clear
4:56 PM 88.0 °F 50.0 °F 27% 30.31 in 10.0 mi NNW 10.4 mph - N/A   Clear
5:56 PM 86.0 °F 52.0 °F 31% 30.32 in 10.0 mi WNW 17.3 mph - N/A   Clear
6:56 PM 79.0 °F 51.1 °F 38% 30.33 in 10.0 mi WNW 13.8 mph - N/A   Clear
7:56 PM 77.0 °F 51.1 °F 40% 30.35 in 10.0 mi West 12.7 mph - N/A   Clear
8:56 PM 75.0 °F 52.0 °F 44% 30.37 in 10.0 mi WNW 12.7 mph - N/A   Clear
9:56 PM 72.0 °F 52.0 °F 49% 30.40 in 10.0 mi WNW 5.8 mph - N/A   Clear
10:56 PM 71.1 °F 53.1 °F 53% 30.40 in 10.0 mi WNW 12.7 mph - N/A   Clear
11:56 PM 70.0 °F 48.0 °F 46% 30.42 in 10.0 mi WNW 16.1 mph - N/A   Clear